Location: Peterborough
(44.3091°N, 78.3197°W)
Time: 05:13:57
(UTC-04:00)

Tiros 1 - Pass Details

Date: 05 April 2023
Orbit: 627 x 661 km, 48.4° (Epoch: 09 June)

Event Time Altitude Azimuth Distance (km) Brightness Sun altitude
Rises 02:12:11 0° 225° (SW) 2,949 - -38.1°
Reaches altitude 10° 02:14:34 10° 219° (SW) 2,047 - -38.0°
Maximum altitude 02:19:05 47° 146° (SSE) 870 - -37.7°
Drops below altitude 10° 02:23:40 10° 73° (ENE) 2,072 - -37.4°
Exits shadow 02:24:06 - 72° (ENE) 2,231 10.3 -37.4°
Sets 02:26:05 0° 68° (ENE) 2,990 11.1 -37.3°
